This is the latest recevied weather packets stored in our database for station/object KE8WMS. If no packets are shown the sender has not sent any weather packets the latest 10 day(s).
| Time | Temp. | Humidity | Pressure | Rain* | Wind** | Luminosity | Snow |
|---|---|---|---|---|---|---|---|
| 1777059367 | 15° C | 93% | 1004.4 hPa | 0 mm | - | 47 W/m² | - |
| 1777059062 | 15° C | 94% | 1003.3 hPa | 0 mm | - | 182 W/m² | - |
| 1777058762 | 15° C | 94% | 1003.1 hPa | 0 mm | - | 281 W/m² | - |
| 1777058458 | 14.44° C | 92% | 1003.3 hPa | 6.1 mm | - | 231 W/m² | - |
| 1777058155 | 15° C | 89% | 1003.6 hPa | 19.81 mm | - | 146 W/m² | - |
| 1777057850 | 16.11° C | 84% | 1003.8 hPa | 13.72 mm | - | 86 W/m² | - |
| 1777057545 | 18.33° C | 72% | 1004 hPa | 1.78 mm | - | 58 W/m² | - |
| 1777057242 | 19.44° C | 66% | 1003.4 hPa | 0 mm | - | 76 W/m² | - |
| 1777056938 | 21.11° C | 64% | 1003.3 hPa | 0 mm | - | 195 W/m² | - |
| 1777056635 | 21.67° C | 62% | 1003 hPa | 0 mm | - | 323 W/m² | - |
| 1777056332 | 21.67° C | 63% | 1003.3 hPa | 0 mm | - | 733 W/m² | - |
| 1777056029 | 20.56° C | 65% | 1003.1 hPa | 0 mm | - | 280 W/m² | - |
| 1777055725 | 21.11° C | 64% | 1003.4 hPa | 0 mm | - | 132 W/m² | - |
| 1777055422 | 21.11° C | 63% | 1003.6 hPa | 0 mm | - | 541 W/m² | - |
| 1777055121 | 21.11° C | 64% | 1003.4 hPa | 0 mm | - | 365 W/m² | - |
| 1777054816 | 21.11° C | 65% | 1003.6 hPa | 0 mm | - | 676 W/m² | - |
| 1777054513 | 21.11° C | 64% | 1003.7 hPa | 0 mm | - | 395 W/m² | - |
| 1777054210 | 21.11° C | 63% | 1003.7 hPa | 0 mm | - | 714 W/m² | - |
| 1777053908 | 20.56° C | 68% | 1003.8 hPa | 0 mm | - | 708 W/m² | - |
| 1777053603 | 20.56° C | 64% | 1003.9 hPa | 0 mm | - | 674 W/m² | - |
| 1777053303 | 20.56° C | 64% | 1004 hPa | 0 mm | - | 588 W/m² | - |
| 1777052999 | 21.11° C | 66% | 1004 hPa | 0 mm | - | 680 W/m² | - |
| 1777052695 | 20.56° C | 66% | 1004.2 hPa | 0 mm | - | 664 W/m² | - |
| 1777052395 | 20.56° C | 64% | 1004.2 hPa | 0 mm | - | 676 W/m² | - |
| 1777052092 | 20° C | 66% | 1004.4 hPa | 0 mm | - | 678 W/m² | - |
* Rain latest hour (hover to see other rain measurements)
** Current wind speed in m/s (hover to see current wind gust speed)